Aurora, IL

9:13 PM CDT on May 29, 2017 (GMT -0500)
Aurora Municipal

Weather History for KARR - February, 2012

Change the Weather History Date:

Wednesday, February 29, 2012

  Actual Average Record
Temperature  
Mean Temperature 45 °F 30 °F  
Max Temperature 55 °F 39 °F 57 °F (2004)
Min Temperature 34 °F 21 °F 23 °F (2008)
Degree Days  
Heating Degree Days 20 35  
Month to date heating degree days 989 1157  
Since 1 July heating degree days 5173  
Cooling Degree Days 0 0  
Month to date cooling degree days 0 0  
Year to date cooling degree days 0 0  
Moisture  
Dew Point 39 °F    
Average Humidity 73    
Maximum Humidity 100    
Minimum Humidity 45    
Precipitation  
Precipitation 0.16 in - 0.16 in (2012)
Month to date precipitation 1.20 1.62  
Year to date precipitation 1.72 3.09  
Sea Level Pressure  
Sea Level Pressure 29.55 in    
Wind  
Wind Speed 22 mph (South)    
Max Wind Speed 35 mph    
Max Gust Speed 46 mph    
Visibility 6 miles    
Events Rain , Snow    
T = Trace of Precipitation, MM = Missing Value Source: NWS Daily Summary

Daily Weather History Graph

Daily Weather History Graph

Search for Another Location

Airport or City:

Trip Planner

Search our weather history database for the weather conditions in past years. The results will help you decide how hot, cold, wet, or windy it might be!

Date:

Astronomy

Feb. 29, 2012 Rise Set
Actual Time 6:29 AM CST 5:43 PM CST
Civil Twilight 6:01 AM CST 6:11 PM CST
Nautical Twilight 5:29 AM CST 6:43 PM CST
Astronomical Twilight 4:57 AM CST 7:16 PM CST
Moon 10:13 AM CST (2/29) 12:37 AM CST (2/29)
Length of Visible Light 12h 10m
Length of Day
11h 14m
Waxing Crescent, 47% of the Moon is Illuminated
Feb 29
Waxing Crescent
Feb 29
First Quarter
Mar 8
Full
Mar 14
Last Quarter
Mar 22
New

Hourly Weather History & Observations

Time (CST) Temp. Windchill Dew Point Humidity Pressure Visibility Wind Dir Wind Speed Gust Speed Precip Events Conditions
12:35 AM 42.8 °F 35.1 °F 39.2 °F 87% 29.71 in 3.0 mi ESE 16.1 mph - 0.05 in Rain Light Rain
12:52 AM 42.1 °F 34.5 °F 39.9 °F 92% 29.71 in 4.0 mi ESE 15.0 mph - 0.05 in Rain Light Rain
1:28 AM 42.8 °F 36.2 °F 39.2 °F 87% 29.68 in 3.0 mi SE 12.7 mph - 0.06 in Rain Light Rain
1:35 AM 42.8 °F 34.5 °F 39.2 °F 87% 29.67 in 2.5 mi ESE 18.4 mph 21.9 mph 0.06 in Rain Light Rain
1:42 AM 42.8 °F 34.3 °F 39.2 °F 87% 29.66 in 4.0 mi ESE 19.6 mph 25.3 mph 0.06 in Rain Light Rain
1:49 AM 42.8 °F 36.2 °F 39.2 °F 87% 29.64 in 4.0 mi SE 12.7 mph 25.3 mph 0.06 in   Overcast
1:50 AM 42.1 °F 34.9 °F 39.9 °F 92% 29.66 in 4.0 mi SE 13.8 mph 25.3 mph 0.06 in   Overcast
1:57 AM 42.8 °F 35.4 °F 41.0 °F 93% 29.64 in 4.0 mi SE 15.0 mph - 0.01 in Rain Light Rain
2:52 AM 43.0 °F 35.7 °F 41.0 °F 93% 29.60 in 4.0 mi ESE 15.0 mph - 0.01 in Rain Light Rain
3:52 AM 44.1 °F 37.7 °F 42.1 °F 93% 29.55 in 3.0 mi SE 12.7 mph - 0.01 in   Overcast
4:07 AM 44.6 °F 38.4 °F 42.8 °F 93% 29.52 in 2.5 mi SE 12.7 mph - N/A   Overcast
4:33 AM 44.6 °F 39.7 °F 44.6 °F 100% 29.52 in 2.0 mi SE 9.2 mph - N/A   Overcast
4:42 AM 46.4 °F 45.2 °F 44.6 °F 93% 29.51 in 1.8 mi SE 3.5 mph - 0.02 in Rain Light Rain
4:52 AM 45.0 °F 41.8 °F 44.1 °F 97% 29.52 in 2.0 mi SE 5.8 mph - 0.02 in   Overcast
5:24 AM 46.4 °F 41.5 °F 44.6 °F 93% 29.48 in 1.5 mi SE 10.4 mph - N/A   Overcast
5:32 AM 46.4 °F 41.5 °F 46.4 °F 100% 29.48 in 1.8 mi SSE 10.4 mph - N/A   Overcast
5:42 AM 48.2 °F - 46.4 °F 93% 29.48 in 2.5 mi SSE 11.5 mph - N/A   Overcast
5:52 AM 48.9 °F - 48.0 °F 97% 29.48 in 2.5 mi SSE 13.8 mph - N/A   Overcast
6:41 AM 48.2 °F - 48.2 °F 100% 29.48 in 1.5 mi South 8.1 mph - N/A   Scattered Clouds
6:52 AM 48.9 °F - 48.0 °F 97% 29.49 in 1.5 mi South 9.2 mph - N/A   Partly Cloudy
7:03 AM 51.8 °F - 48.2 °F 88% 29.47 in 3.0 mi SSW 11.5 mph - 0.01 in   Partly Cloudy
7:52 AM 53.1 °F - 45.0 °F 74% 29.49 in 10.0 mi SW 18.4 mph 33.4 mph 0.01 in   Clear
8:52 AM 54.0 °F - 43.0 °F 66% 29.50 in 10.0 mi SW 23.0 mph 31.1 mph N/A   Clear
9:52 AM 54.0 °F - 39.0 °F 57% 29.52 in 10.0 mi SW 28.8 mph 42.6 mph N/A   Clear
10:52 AM 53.1 °F - 37.9 °F 57% 29.51 in 10.0 mi SW 21.9 mph 33.4 mph N/A   Clear
11:52 AM 53.1 °F - 34.0 °F 48% 29.49 in 10.0 mi SW 29.9 mph 44.9 mph N/A   Clear
12:52 PM 53.1 °F - 32.0 °F 45% 29.44 in 10.0 mi SW 32.2 mph 42.6 mph N/A   Clear
1:52 PM 53.1 °F - 35.1 °F 50% 29.44 in 10.0 mi WSW 33.4 mph 46.0 mph N/A   Partly Cloudy
2:52 PM 48.9 °F - 35.1 °F 59% 29.46 in 10.0 mi WSW 28.8 mph 39.1 mph N/A   Overcast
3:52 PM 44.1 °F 35.0 °F 32.0 °F 63% 29.49 in 10.0 mi WSW 24.2 mph 32.2 mph N/A   Overcast
4:52 PM 42.1 °F 32.6 °F 30.0 °F 62% 29.52 in 10.0 mi WSW 23.0 mph 40.3 mph N/A   Overcast
5:52 PM 35.1 °F 23.5 °F 32.0 °F 89% 29.58 in 7.0 mi WSW 21.9 mph 33.4 mph 0.00 in   Overcast
6:00 PM 35.6 °F 22.7 °F 30.2 °F 81% 29.56 in 5.0 mi WSW 28.8 mph 38.0 mph 0.00 in Snow Light Snow
6:52 PM 34.0 °F 22.4 °F 30.9 °F 89% 29.59 in 4.0 mi WSW 20.7 mph 31.1 mph 0.01 in Snow Light Snow
7:52 PM 34.0 °F 21.0 °F 30.0 °F 85% 29.59 in 10.0 mi WSW 26.5 mph 42.6 mph 0.00 in   Overcast
8:52 PM 34.0 °F 19.9 °F 28.9 °F 82% 29.61 in 10.0 mi West 32.2 mph 36.8 mph N/A   Overcast
9:52 PM 34.0 °F 21.5 °F 30.0 °F 85% 29.62 in 7.0 mi West 24.2 mph 38.0 mph 0.00 in   Overcast
10:52 PM 34.0 °F 21.5 °F 30.0 °F 85% 29.63 in 9.0 mi West 24.2 mph 34.5 mph N/A   Overcast
11:52 PM 34.0 °F 21.8 °F 30.9 °F 89% 29.64 in 6.0 mi West 23.0 mph - N/A   Overcast